Location: George Washington National Forest Helicopter Landing Site
(38.6463°N, 79.0851°W)
Time: 18:56:56
(UTC-04:00)

Tiros 1 - Pass Details

Date: 25 August 2019
Orbit: 630 x 664 km, 48.4° (Epoch: 20 September)

Event Time Altitude Azimuth Distance (km) Brightness Sun altitude
Exits shadow 03:14:15 24° 12° (NNE) 1,333 9.2 -33.7°
Drops below altitude 10° 03:17:33 10° 56° (NE) 2,027 10.4 -33.3°
Sets 03:20:16 0° 70° (ENE) 2,942 11.3 -33.0°
